sat.trackr.live / text

‹ back to catalog

STARLINK-32381

NORAD 61066 · 2024-164S

PAYLOAD ACTIVE UNKNOWN

§ Identity

Operator
Country
US
Launch date
2024-09-13
Launch site
AFWTR
Launch vehicle
Mass (kg)
RCS (m²)

Purposes: comms

External: N2YO · Heavens-Above · Gunter

§ Orbital elements

Epoch: 2026-09-21T11:01:25.894272Z

Period
93.85 min
Inclination
53.1592°
Eccentricity
0.0001283
Mean motion
15.34393470 rev/d
Perigee alt
461.8 km
Apogee alt
463.6 km
Semi-major
6,840.9 km
B*
1.1818e-5
RAAN
260.8762°
Arg perigee
87.0724°
Mean anomaly
273.0425°
Rev number
11,346

§ Raw data

STARLINK-323811 61066U 24164S   26264.45932748  .00000023  00000+0  11818-4 0  99952 61066  53.1592 260.8762 0001283  87.0724 273.0425 15.34393470113466

JSON: /api/v1/satellites/61066 · /tle

For live sub-satellite position, see the globe view (requires WebGL).

§ Visibility from observer

Set your observer location to see the next 7 days of passes ≥ 10°. The values pass through the URL so the page stays shareable.

No JS? Fill the form by hand. The geolocation button needs JavaScript.